Location: Buckland
(65.9785°N, 161.1281°W)
Time: 12:10:50
(UTC+00:00)

Vanguard 1 Rocket - Visible Passes

Search period start: 30 November 2020 00:00
Search period end: 10 December 2020 00:00
Orbit: 656 x 4221 km, 34.3° (Epoch: 30 November)

Date Brightness Start Highest point End Pass type
(mag) Time Alt. Az. Time Alt. Az. Time Alt. Az.
30 Nov 11.4 11:16:11 14° SE 11:16:11 14° SE 11:20:26 10° ESE visible
30 Nov 11.1 13:33:26 21° S 13:34:32 21° S 13:46:11 10° SE visible
30 Nov 11.1 15:50:43 13° SW 15:58:41 17° SSW 16:07:11 10° S visible
01 Dec 11.2 12:26:07 20° SSE 12:26:07 20° SSE 12:35:21 10° SE visible
01 Dec 11.1 14:43:24 19° SSW 14:47:34 20° SSW 14:58:22 10° SSE visible
01 Dec 11.2 17:06:32 10° WSW 17:10:44 11° SW 17:14:32 10° SSW visible
02 Dec 11.4 11:18:48 15° SE 11:18:48 15° SE 11:23:35 10° ESE visible
02 Dec 11.1 13:36:04 22° S 13:36:04 22° S 13:48:32 10° SE visible
02 Dec 11.1 15:53:20 13° SW 16:00:08 16° SSW 16:08:50 10° S visible
03 Dec 11.2 12:28:44 21° SSE 12:28:44 21° SSE 12:37:51 10° SE visible
03 Dec 11.1 14:46:00 20° SSW 14:49:00 20° SSW 15:00:19 10° SSE visible
04 Dec 11.4 11:21:24 16° SE 11:21:24 16° SE 11:26:17 10° ESE visible
04 Dec 11.1 13:38:40 23° S 13:38:40 23° S 13:50:39 10° SSE visible
04 Dec 11.2 15:55:56 14° SW 16:01:26 15° SW 16:10:05 10° S visible
05 Dec 11.2 12:31:21 22° SSE 12:31:21 22° SSE 12:40:05 10° SE visible
05 Dec 11.1 14:48:36 20° SSW 14:50:21 20° SSW 15:02:00 10° SSE visible
06 Dec 11.4 11:24:02 16° SE 11:24:02 16° SE 11:28:40 10° SE visible
06 Dec 11.1 13:41:18 23° S 13:41:18 23° S 13:52:32 10° SSE visible
06 Dec 11.3 15:58:35 13° SW 16:02:38 14° SW 16:10:50 10° SSW visible
07 Dec 11.2 12:34:00 21° SSE 12:34:00 21° SSE 12:42:06 10° SE visible
07 Dec 11.2 14:51:16 19° SSW 14:51:35 19° SSW 15:03:21 10° S visible
08 Dec 11.4 11:26:43 16° SE 11:26:43 16° SE 11:30:47 10° SE visible
08 Dec 11.1 13:44:00 22° S 13:44:00 22° S 13:54:10 10° SSE visible
08 Dec 11.3 16:01:17 12° SW 16:03:41 13° SW 16:10:49 10° SSW visible
09 Dec 11.3 12:36:44 20° SSE 12:36:44 20° SSE 12:43:52 10° SE visible
09 Dec 11.2 14:54:01 18° SSW 14:54:01 18° SSW 15:04:18 10° S visible
